MPEC 2000-J11: 2000 HB24

The following Minor Planet Electronic Circular may be linked-to from your own Web pages, but must not otherwise be redistributed electronically.


Read MPEC 2000-J10 Read MPEC 2000-J12


M.P.E.C. 2000-J11                                Issued 2000 May 3, 21:43 UT

     The Minor Planet Electronic Circulars contain information on unusual
         minor planets and routine data on comets.  They are published
   on behalf of Commission 20 of the International Astronomical Union by the
          Minor Planet Center, Smithsonian Astrophysical Observatory,
                          Cambridge, MA 02138, U.S.A.

             Prepared using the Tamkin Foundation Computer Network

             BMARSDEN@CFA.HARVARD.EDU or GWILLIAMS@CFA.HARVARD.EDU
          URL http://cfa-www.harvard.edu/iau/mpc.html  ISSN 1523-6714

                                   2000 HB24

Observations:
     K00H24B* C2000 04 28.41950 16 27 24.24 +03 11 18.4          17.7        704
     K00H24B  C2000 04 28.43218 16 26 54.35 +03 10 22.6          18.0        704
     K00H24B  C2000 04 28.44578 16 26 22.42 +03 09 23.5          18.1        704
     K00H24B  C2000 04 29.28646 15 56 50.82 +02 10 23.5          18.5        704
     K00H24B  C2000 04 29.29863 15 56 25.72 +02 09 34.7          18.0        704
     K00H24B  C2000 04 29.31081 15 56 00.58 +02 08 45.9          18.2        704
     K00H24B  C2000 04 29.32299 15 55 35.45 +02 07 57.0          18.3        704
     K00H24B  C2000 04 29.33516 15 55 10.42 +02 07 08.4          17.7        704
     K00H24B  C2000 04 29.37048 15 53 58.00 +02 04 47.7          17.9        704
     K00H24B  C2000 04 29.38742 15 53 23.34 +02 03 39.2          18.4        704
     K00H24B  C2000 04 29.40185 15 52 53.98 +02 02 41.9          18.6        704
     K00H24B  C2000 04 29.60075015 46 40.30 +01 54 03.7          18.6        422
     K00H24B  C2000 04 29.60223 15 46 37.39 +01 53 57.4          18.8        422
     K00H24B  C2000 04 29.60405115 46 33.85 +01 53 50.5          18.2        422
     K00H24B  C2000 04 29.62400415 45 54.55 +01 52 32.7          18.5        422
     K00H24B  C2000 04 30.02328 15 33 50.60 +01 22 16.7          17.9 V      557
     K00H24B  C2000 04 30.02413 15 33 48.91 +01 22 12.7                      557
     K00H24B  C2000 04 30.02456 15 33 48.30 +01 22 11.0                      557
     K00H24B  C2000 04 30.02500 15 33 47.41 +01 22 10.2                      557
     K00H24B  C2000 04 30.02543 15 33 46.66 +01 22 08.8                      557
     K00H24B  C2000 04 30.26238 15 27 09.64 +01 08 48.4          17.8        704
     K00H24B  C2000 04 30.29318 15 26 16.01 +01 07 00.5          17.7        704
     K00H24B  C2000 04 30.30545 15 25 54.66 +01 06 17.3          18.2        704
     K00H24B  C2000 04 30.31634 15 25 35.80 +01 05 39.2          17.7        704
     K00H24B  C2000 04 30.32311 15 25 24.05 +01 05 15.5          18.5        704
     K00H24B  C2000 04 30.33081 15 25 10.73 +01 04 49.3          17.7        704
     K00H24B  C2000 04 30.33973 15 24 55.30 +01 04 17.1          18.4        704
     K00H24B  C2000 04 30.34838 15 24 40.42 +01 03 48.3          17.3        704
     K00H24B  C2000 04 30.35552 15 24 28.16 +01 03 23.5          18.9        704
     K00H24B  C2000 04 30.38002 15 23 46.09 +01 01 58.8          18.4        704
     K00H24B  C2000 04 30.91709 15 10 00.38 +00 31 36.4                      557
     K00H24B  C2000 04 30.91757 15 09 59.69 +00 31 34.8                      557
     K00H24B  C2000 04 30.91947 15 09 56.68 +00 31 28.3                      557
     K00H24B  C2000 04 30.91994 15 09 56.05 +00 31 27.0                      557
     K00H24B  C2000 04 30.94645 15 09 15.75 +00 30 06.0          17.2 R      046
     K00H24B  C2000 04 30.94696 15 09 14.95 +00 30 05.5          16.7 R      046
     K00H24B  C2000 04 30.94745 15 09 14.23 +00 30 03.8          17.3 R      046
     K00H24B  C2000 04 30.94789 15 09 13.53 +00 30 01.9          17.2 R      046
     K00H24B  C2000 05 01.08123 15 05 53.09 +00 23 04.8                      557
     K00H24B  C2000 05 01.08227 15 05 51.55 +00 23 02.2                      557
     K00H24B  C2000 05 01.08331 15 05 50.07 +00 22 59.1                      557
     K00H24B  C2000 05 01.08435 15 05 48.52 +00 22 55.5                      557
     K00H24B  C2000 05 01.18934 15 03 34.28 +00 18 22.9          17.9        704
     K00H24B  C2000 05 01.21401 15 02 58.41 +00 17 08.5          17.6        704
     K00H24B  C2000 05 01.22639 15 02 40.45 +00 16 31.5          17.2        704
     K00H24B  C2000 05 01.23874 15 02 22.52 +00 15 54.5          17.6        704
     K00H24B  C2000 05 01.35538 14 59 36.77 +00 10 07.3                      670
     K00H24B WC2000 05 01.35639 14 59 35.42 +00 10 05.4                      670
     K00H24B  C2000 05 01.65367 14 53 03.15 -00 04 04.9          18.5 V      402
     K00H24B  C2000 05 01.65493 14 53 02.46 -00 04 06.3                      402
     K00H24B  C2000 05 01.65620 14 53 00.31 -00 04 10.4                      402
     K00H24B  C2000 05 01.65873 14 52 57.05 -00 04 18.0                      402
     K00H24B  C2000 05 01.65999 14 52 55.24 -00 04 23.1                      402
     K00H24B  C2000 05 02.36893 14 38 48.19 -00 34 50.7          18.8 V      651
     K00H24B  C2000 05 02.36957 14 38 47.47 -00 34 52.3          18.6 V      651
     K00H24B  C2000 05 02.37021 14 38 46.70 -00 34 54.7          18.7 V      651
     K00H24B  C2000 05 02.94689 14 28 44.48 -00 57 44.2          17.3 R      046
     K00H24B  C2000 05 02.94751 14 28 43.86 -00 57 45.5          17.2 R      046
     K00H24B  C2000 05 02.95096 14 28 40.27 -00 57 53.7          17.1 R      046
     K00H24B  C2000 05 02.95202 14 28 39.13 -00 57 55.5          17.5 R      046
     K00H24B  C2000 05 02.95501 14 28 36.10 -00 58 03.6          17.5 R      046
     K00H24B  C2000 05 02.95582 14 28 35.09 -00 58 03.7          17.3 R      046
     K00H24B  C2000 05 03.27153 14 23 31.67 -01 08 40.1          18.5        704
     K00H24B  C2000 05 03.27242 14 23 30.84 -01 08 41.9          18.3        704
     K00H24B  C2000 05 03.28402 14 23 19.30 -01 09 06.3          18.3        704
     K00H24B  C2000 05 03.28540 14 23 17.93 -01 09 09.3          18.7        704
     K00H24B  C2000 05 03.29651 14 23 06.86 -01 09 31.5          18.2        704
     K00H24B  C2000 05 03.29820 14 23 05.17 -01 09 35.5          18.3        704
     K00H24B  C2000 05 03.30901 14 22 54.49 -01 09 57.4          18.1        704
     K00H24B  C2000 05 03.31105 14 22 52.56 -01 10 01.7          18.1        704
     K00H24B  C2000 05 03.32156 14 22 42.11 -01 10 23.2          18.7        704
     K00H24B  C2000 05 03.32385 14 22 39.83 -01 10 27.8          18.5        704

Observer details:
046 Klet.  Observers J. Ticha, M. Tichy, Z. Moravec.  0.57-m f/5.2 reflector
    + CCD.
402 Dynic Astronomical Observatory.  Observer A. Sugie.  0.60-m f/3.7 reflector
    + CCD.
422 Loomberah.  Observer G. J. Garradd.  0.45-m f/5.4 reflector + CCD.
557 Ondrejov.  Observers P. Pravec, L. Sarounova, P. Kusnirak.  0.65-m f/3.6
    reflector + CCD.
651 Grasslands Observatory, Tucson.  Observer J. E. McGaha.  0.62-m f/5.1
    reflector + CCD.
670 Camarillo.  Observer J. E. Rogers.  0.30-m f/6.7 Helin Telescope + CCD.
704 Lincoln Laboratory ETS, New Mexico.  Observers M. Blythe, F. Shelly,
    M. Bezpalko, M. Elowitz, R. Huber.  Measurers J. Stuart, H. Viggh,
    R. Sayer, J. B. Evans.  1.0-m f/2.15 reflector + CCD.

Orbital elements:
2000 HB24
Epoch 2000 Feb. 26.0 TT = JDT 2451600.5                 Williams
M  25.53126              (2000.0)            P               Q
n   1.33577048     Peri.   17.53631     +0.28924155     -0.95649687
a   0.8165476      Node    55.66701     +0.87263996     +0.24709592
e   0.4295753      Incl.    2.64580     +0.39349565     +0.15510429
P   0.74           H   23.4           G   0.15           U   8
From 68 observations 2000 Apr. 28-May 3, mean residual 0".54.

Ephemeris:
2000 HB24                a,e,i = 0.82, 0.43, 3                   q = 0.4658
Date    TT    R. A. (2000) Decl.     Delta      r     Elong.  Phase     V
2000 04 26    18 09.28   +06 02.9    0.030    1.021   118.7    59.9    18.0
2000 04 27    17 25.44   +04 57.3    0.030    1.026   130.0    48.7    17.7
2000 04 28    16 43.75   +03 44.4    0.032    1.032   140.7    38.2    17.5
2000 04 29    16 06.47   +02 32.3    0.034    1.037   149.9    29.1    17.4
2000 04 30    15 34.57   +01 26.7    0.037    1.042   157.3    22.0    17.4
2000 05 01    15 07.94   +00 30.0    0.041    1.046   162.3    17.0    17.4
2000 05 02    14 45.97   -00 17.6    0.045    1.051   164.8    14.6    17.6
2000 05 03    14 27.88   -00 57.4    0.049    1.056   164.9    14.4    17.8
2000 05 04    14 12.91   -01 30.6    0.054    1.060   163.4    15.7    18.1
2000 05 05    14 00.46   -01 58.7    0.059    1.065   161.3    17.7    18.3
2000 05 06    13 50.02   -02 22.5    0.064    1.069   159.0    19.8    18.6

2000 05 11    13 17.00   -03 44.6    0.092    1.090   148.3    29.1    19.7
2000 05 16    13 00.88   -04 37.0    0.122    1.108   140.3    35.6    20.5
2000 05 21    12 52.60   -05 18.6    0.152    1.123   133.9    40.5    21.2
2000 05 26    12 48.67   -05 56.0    0.184    1.136   128.4    44.3    21.7
2000 05 31    12 47.49   -06 32.2    0.215    1.147   123.6    47.4    22.2
2000 06 05    12 48.22   -07 08.9    0.247    1.156   119.2    50.0    22.5

Gareth V. Williams           (C) Copyright 2000 MPC           M.P.E.C. 2000-J11

Read MPEC 2000-J10 Read MPEC 2000-J12


Our Web policy. Index to the CBAT/MPC/ICQ pages.

MPC